Regional Weather Roundup
Issued by NWS Jackson, KY

Home | Current Version | Previous Version | Text Only | Print | Product List | Glossary On
Versions: 1 2 3 4 5 6 7 8 9 10 11 12 13 14 15 16 17 18 19 20 21 22 23 24 25 26 27 28 29 30 31 32 33 34 35 36 37 38 39 40 41 42 43 44 45 46 47 48 49 50
000
ASUS43 KJKL 172019
RWRJKL

EAST KENTUCKY HOURLY WEATHER ROUNDUP
NATIONAL WEATHER SERVICE JACKSON KY
300 PM EST WED DEC 17 2014

NOTE: "FAIR" INDICATES FEW OR NO CLOUDS BELOW 12,000 FEET WITH
NO SIGNIFICANT WEATHER AND/OR OBSTRUCTIONS TO VISIBILITY.

* THESE REPORTS ARE NOT UNDER NWS QUALITY CONTROL AND MAY NOT
  REPORT WEATHER SUCH AS PRECIPITATION AND FOG.

KYZ079-080-083-085-087-088-110-112-115-119-120-172100
...EASTERN KENTUCKY...

CITY           SKY/WX    TMP DP  RH WIND       PRES   REMARKS
JACKSON        CLOUDY    38  28  67 VRB6      30.17S WCI  33
LONDON         PTSUNNY   38  28  67 W6        30.20R WCI  33
SOMERSET*      PTSUNNY   36  28  75 W5        30.23R WCI  32
MONTICELLO*    MOSUNNY   39  30  70 W3        30.24S
MIDDLESBORO*   MOSUNNY   43  31  62 NW6       30.18S
HARLAN APT*    CLEAR     43  30  61 S6        30.15S
BLACK MTN*       N/A     39  32  75 CALM        N/A
PIKEVILLE APT* MOSUNNY   41  28  60 SW7       30.14S
BIG SANDY*     CLOUDY    38  30  71 W7        30.16S WCI  33
MOREHEAD APT*  CLOUDY    34  27  75 W5G14     30.22R WCI  30
ASHLAND*       CLOUDY    36  25  64 W8        30.18S WCI  29
$$

KYZ035-036-041-042-044-050-067-078-099-172100
...CENTRAL KENTUCKY...

CITY           SKY/WX    TMP DP  RH WIND       PRES   REMARKS
MT STERLING*   CLOUDY    34  30  86 W8        30.21S WCI  27
FLEMING/MASON* CLOUDY    32  27  80 W7        30.21R WCI  26
DANVILLE*      PTSUNNY   37  28  70 N6        30.21S WCI  33
RICHMOND*      PTSUNNY   37  27  65 NW6       30.20R WCI  33
LEXINGTON      CLOUDY    35  26  69 W8        30.20F WCI  29
FRANKFORT      CLOUDY    34  26  72 SW8       30.20F WCI  27
$$

KYZ091>093-OHZ055-061-077-WVZ005-015-034-035-042-172100
...SOUTHERN OHIO/WEST VIRGINIA...

CITY           SKY/WX    TMP DP  RH WIND       PRES   REMARKS
COVINGTON      CLOUDY    32  22  66 W8        30.20S WCI  25
COLUMBUS       CLOUDY    30  23  75 W12       30.16S WCI  20
DAYTON         CLOUDY    28  23  81 W10       30.19R WCI  19
WILMINGTON     CLOUDY    30  23  75 W16       30.17S WCI  19
HUNTINGTON     CLOUDY    36  27  69 W7        30.17S WCI  30
CHARLESTON     CLOUDY    38  29  70 VRB6      30.14F WCI  33
PINEVILLE*     SUNNY     45  33  63 MISG      30.14F
BECKLEY        MOSUNNY   40  27  59 W14       30.07F WCI  32
BLUEFIELD      CLOUDY    42  30  62 NW10      30.06F
$$

VAZ002-007-008-TNZ017-027-036-066-071-172100
...SOUTHWEST VIRGINIA/EAST TENNESSEE...

CITY           SKY/WX    TMP DP  RH WIND       PRES   REMARKS
WISE*          SUNNY     43  28  56 W6        30.10F
JONESVILLE*    CLEAR     43  30  61 SW5       30.17S
ABINGDON*      MOSUNNY   46  32  57 W8        30.09F
BRISTOL        MOSUNNY   47  33  58 W10       30.12F
KNOXVILLE      PTSUNNY   45  37  73 CALM      30.18S
OAK RIDGE      PTSUNNY   49  34  56 VRB3      30.19S
CROSSVILLE     MOSUNNY   40  30  67 VRB5      30.17F
NASHVILLE      PTSUNNY   39  29  67 CALM      30.25F
$$

...KEY TO REMARKS...
VSB - VISIBILITY IN MILES
WCI - WIND CHILL INDEX
HX  - HEAT INDEX

$$



USA.gov is the U.S. government's official web portal to all federal, state and local government web resources and services.